Rome, GA

8:59 PM EST on November 15, 2019 (GMT -0500)
Russell

Weather History for KRMG - September, 2019

Change the Weather History Date:

Tuesday, September 24, 2019

  Actual Average Record
Temperature  
Mean Temperature 78 °F 69 °F  
Max Temperature 93 °F 81 °F 96 °F (2016)
Min Temperature 63 °F 57 °F 7 °F (1996)
Degree Days  
Heating Degree Days 0 1  
Month to date heating degree days 0 5  
Since 1 July heating degree days 0 5  
Cooling Degree Days 14 5  
Month to date cooling degree days 355 198  
Year to date cooling degree days 2114 1564  
Growing Degree Days 28 (Base 50)    
Moisture  
Dew Point 62 °F    
Average Humidity 59    
Maximum Humidity 90    
Minimum Humidity 28    
Precipitation  
Precipitation 0.00 in 0.13 in 3.14 in (2018)
Month to date precipitation T 2.58  
Year to date precipitation 42.45 38.00  
Sea Level Pressure  
Sea Level Pressure 29.89 in    
Wind  
Wind Speed 2 mph ()    
Max Wind Speed 13 mph    
Max Gust Speed 20 mph    
Visibility 10.0 miles    
Events      
T = Trace of Precipitation, MM = Missing Value Source: Averaged Metar Reports

Daily Weather History Graph

Daily Weather History Graph

Search for Another Location

Airport or City:

Astronomy

Sep. 24, 2019 Rise Set
Actual Time 7:29 AM EDT 7:34 PM EDT
Civil Twilight 7:04 AM EDT 7:59 PM EDT
Nautical Twilight 6:35 AM EDT 8:29 PM EDT
Astronomical Twilight 6:06 AM EDT 8:58 PM EDT
Moon 2:29 AM EDT (9/24) 5:05 PM EDT (9/24)
Length of Visible Light 12h 54m
Length of Day
12h 04m
Waning Crescent, 23% of the Moon is Illuminated
Sep 24
Waning Crescent
Sep 28
New
Oct 5
First Quarter
Oct 13
Full
Oct 21
Last Quarter

Hourly Weather History & Observations

Time (EDT) Temp. Heat Index Dew Point Humidity Pressure Visibility Wind Dir Wind Speed Gust Speed Precip Events Conditions
12:53 AM 78.1 °F - 66.0 °F 66% 29.94 in 10.0 mi Calm Calm - N/A   Overcast
1:53 AM 77.0 °F - 66.0 °F 69% 29.94 in 10.0 mi Calm Calm - N/A   Overcast
2:53 AM 73.9 °F - 66.9 °F 79% 29.93 in 10.0 mi Calm Calm - N/A   Overcast
3:53 AM 73.0 °F - 66.0 °F 79% 29.91 in 10.0 mi NNE 3.5 mph - N/A   Overcast
4:53 AM 73.0 °F - 66.0 °F 79% 29.91 in 10.0 mi NW 4.6 mph - N/A   Scattered Clouds
5:53 AM 71.1 °F - 66.0 °F 84% 29.92 in 10.0 mi Calm Calm - N/A   Clear
6:53 AM 69.1 °F - 64.9 °F 87% 29.93 in 10.0 mi Calm Calm - N/A   Clear
7:53 AM 68.0 °F - 64.9 °F 90% 29.94 in 10.0 mi Calm Calm - N/A   Clear
8:53 AM 77.0 °F - 68.0 °F 74% 29.95 in 10.0 mi NNW 4.6 mph - N/A   Clear
9:53 AM 81.0 °F 84.1 °F 69.1 °F 67% 29.95 in 10.0 mi NE 3.5 mph - N/A   Clear
11:53 AM 84.0 °F 86.5 °F 66.9 °F 56% 29.94 in 10.0 mi Variable 4.6 mph - N/A   Partly Cloudy
12:53 PM 87.1 °F 88.3 °F 64.0 °F 46% 29.92 in 10.0 mi Variable 5.8 mph - N/A   Mostly Cloudy
1:53 PM 91.0 °F 90.9 °F 61.0 °F 36% 29.89 in 10.0 mi WNW 8.1 mph 19.6 mph N/A   Scattered Clouds
2:53 PM 93.0 °F 92.3 °F 59.0 °F 32% 29.86 in 10.0 mi North 5.8 mph - N/A   Scattered Clouds
3:53 PM 93.0 °F 92.0 °F 57.9 °F 31% 29.85 in 10.0 mi North 11.5 mph - N/A   Clear
4:53 PM 93.0 °F 91.7 °F 57.0 °F 30% 29.83 in 10.0 mi North - - N/A   Partly Cloudy
5:53 PM 93.0 °F 91.1 °F 55.0 °F 28% 29.83 in 10.0 mi Variable 5.8 mph - N/A   Clear
6:53 PM 90.0 °F 87.7 °F 54.0 °F 29% 29.83 in 10.0 mi North 4.6 mph - N/A   Clear
7:53 PM 81.0 °F 80.7 °F 55.0 °F 41% 29.84 in 10.0 mi Calm Calm - N/A   Clear
8:53 PM 75.0 °F - 55.9 °F 51% 29.85 in 10.0 mi Calm Calm - N/A   Clear
9:53 PM 69.1 °F - 57.0 °F 65% 29.87 in 10.0 mi Calm Calm - N/A   Clear
10:53 PM 66.9 °F - 57.0 °F 70% 29.87 in 10.0 mi Calm Calm - N/A   Clear
11:53 PM 66.0 °F - 57.0 °F 73% 29.87 in 10.0 mi Calm Calm - N/A   Clear